TimeEST,TemperatureF,Dew PointF,Humidity,Sea Level PressureIn,VisibilityMPH,Wind Direction,Wind SpeedMPH,Gust SpeedMPH,PrecipitationIn,Events,Conditions,WindDirDegrees,DateUTC
12:51 AM,39.9,21.0,47,30.07,10.0,West,13.8,-,N/A,,Partly Cloudy,270,2011-11-18 05:51:00
1:51 AM,39.0,19.9,46,30.11,10.0,West,13.8,21.9,N/A,,Partly Cloudy,270,2011-11-18 06:51:00
2:51 AM,39.0,21.0,49,30.15,10.0,West,11.5,-,N/A,,Partly Cloudy,280,2011-11-18 07:51:00
3:51 AM,37.4,21.2,52,30.18,10.0,WNW,20.7,26.5,N/A,,Clear,290,2011-11-18 08:51:00
4:51 AM,37.9,21.0,51,30.21,10.0,West,13.8,28.8,N/A,,Clear,280,2011-11-18 09:51:00
5:51 AM,37.0,23.0,57,30.25,10.0,WNW,11.5,20.7,N/A,,Clear,300,2011-11-18 10:51:00
6:51 AM,37.0,21.0,52,30.29,10.0,WNW,13.8,-,N/A,,Partly Cloudy,300,2011-11-18 11:51:00
7:51 AM,37.0,19.9,50,30.34,10.0,WNW,15.0,28.8,N/A,,Clear,300,2011-11-18 12:51:00
8:51 AM,37.9,19.9,48,30.35,10.0,WNW,17.3,25.3,N/A,,Clear,300,2011-11-18 13:51:00
9:51 AM,39.2,19.4,45,30.37,10.0,WNW,16.1,28.8,N/A,,Clear,300,2011-11-18 14:51:00
10:51 AM,42.1,19.9,41,30.38,10.0,NW,18.4,24.2,N/A,,Partly Cloudy,320,2011-11-18 15:51:00
11:51 AM,44.1,19.0,37,30.37,10.0,WNW,9.2,21.9,N/A,,Partly Cloudy,290,2011-11-18 16:51:00
12:51 PM,45.0,18.0,34,30.35,10.0,WNW,10.4,-,N/A,,Partly Cloudy,300,2011-11-18 17:51:00
1:51 PM,46.0,17.1,31,30.35,10.0,WSW,16.1,20.7,N/A,,Partly Cloudy,250,2011-11-18 18:51:00
2:24 PM,46.4,17.6,32,30.36,10.0,West,10.4,17.3,N/A,,Partly Cloudy,280,2011-11-18 19:24:00
2:51 PM,46.0,18.0,33,30.37,10.0,West,13.8,18.4,N/A,,Partly Cloudy,260,2011-11-18 19:51:00
3:51 PM,45.0,16.0,31,30.36,10.0,West,10.4,-,N/A,,Partly Cloudy,280,2011-11-18 20:51:00
4:51 PM,45.0,16.0,31,30.38,10.0,WSW,8.1,-,N/A,,Partly Cloudy,250,2011-11-18 21:51:00
5:51 PM,44.1,17.1,34,30.41,10.0,WSW,9.2,-,N/A,,Partly Cloudy,240,2011-11-18 22:51:00
6:51 PM,43.0,19.0,38,30.41,10.0,SW,10.4,-,N/A,,Clear,230,2011-11-18 23:51:00
7:51 PM,43.0,18.0,37,30.42,10.0,SW,9.2,-,N/A,,Partly Cloudy,220,2011-11-19 00:51:00
8:51 PM,43.0,18.0,37,30.43,10.0,WSW,9.2,-,N/A,,Partly Cloudy,240,2011-11-19 01:51:00
9:51 PM,42.1,19.9,41,30.44,10.0,SW,6.9,-,N/A,,Clear,230,2011-11-19 02:51:00
10:51 PM,41.0,19.0,41,30.43,10.0,WSW,9.2,-,N/A,,Partly Cloudy,240,2011-11-19 03:51:00
11:51 PM,39.9,21.0,47,30.43,10.0,SW,4.6,-,N/A,,Scattered Clouds,220,2011-11-19 04:51:00